"Pseudo-MPEC" for JKq001

Created 2024 Apr 20 14:22:07 UT using Find_Orb

Click here for an explanation of pseudo-MPECs

 
 Astrometry: 
     JKq001 *1C2024 04 18^+xoTCP4b*A^s+/3/qu*$XDP'Astrometry.U'f:gd/ua_UgM=KIW84
     JKq001  1C2024 04 18!DTe1=6`G:?EET[@:^#RE-fDKlmjGE?\bfP[fO5@PK:DMx%wrg=8W84
     JKq001  1C2024 04 18//rT1rVredacted;P.rp^.\hwVHpPnrUEkBca4LqaZ\Yjfgc6%KMW84
     JKq001  1C2024 04 18mH)eq\GHTVnyS1aA72(rHclick;b4\%$bPQ/y[OJ51q]?'Q?ZZTlW84
     JKq001  1C2024 04 19^Ln4\6:`xD8bCs7mbHEAFQ:Zmt6!@uM4Ope01TIRv=y^?r):r4URW84
     JKq001  1C2024 04 19\Oi]Je8m'cXktvywV+ss+1lWn-O)b[ek$oBgbiHK9yRmv/xI\]4OW84
     JKq001  1C2024 04 19:(6CeR%*w)-Gt/oC4q63J]cYhere\fosD4\41Hf6,t9ehtIefor.W84
     JKq001  1C2024 04 19AUuE9^$OJsHJr6``Hb'8oE2b0fP^6ol1%gexplanationV%4GOaoW84

Station data:
(W84) Cerro Tololo-DECam  (S30.169594 W70.806420)  Chile.  Observer D.
   Trilling. Measurer S. Deen. 4.0-m reflector + CCD.

Orbital elements:  JKq001
   Perihelion 2024 Jun 25.72178 +/- 65.3 TT = 17:19:21 (JD 2460487.22178)
Epoch 2024 Apr 19.0 TT = JDT 2460419.5   Earth MOID: 0.0423   Ve: 0.0870
M 216.14835012 +/- 100              Me: 0.0723                   AutoNEOCP
n   2.12415647 +/- 1.01             Peri.  359.39380 +/- 110
a   0.59934705 +/- 0.191            Node   102.19844 +/- 27
e   0.7732522 +/- 0.198             Incl.   19.99331 +/- 5.2
P   0.46/169.48d           H 19.26  G  0.15   U 12.8  SR
q 0.13590059 +/- 0.369    Q 1.06279352 +/- 3.61           (J2000 ecliptic)
From 8 observations 2024 Apr. 18-19 (24.7 hr); mean residual 0".28
Residuals in arcseconds: 
240418 W84  .53-  .11-    240418 W84  .57+  .07+    240419 W84  .06-  .07+    
240418 W84  .19-  .01-    240419 W84  .59+  .07+    240419 W84  .40-  .08+    
240418 W84  .15+  .05+    240419 W84  .13-  .22-    

Ephemerides (geocentric):
Date (UTC) HH   RA             Dec           delta  r     elong  mag " sig PA
---- --------  ------------   ------------  ------ ------ -----  --- --------
2024 04 20 14  22 46 21.228   -10 00 48.97  1.2881 1.0274  51.5 21.7 39.0 101
2024 04 20 15  22 46 29.637   -10 00 19.68  1.2877 1.0273  51.5 21.7 41.0 101
2024 04 20 16  22 46 38.051   -09 59 50.36  1.2872 1.0271  51.5 21.7 43.2 101
2024 04 20 17  22 46 46.469   -09 59 21.01  1.2868 1.0270  51.5 21.7 45.3 101
2024 04 20 18  22 46 54.892   -09 58 51.63  1.2864 1.0268  51.5 21.7 47.5 101
2024 04 20 19  22 47 03.320   -09 58 22.22  1.2860 1.0266  51.5 21.7 49.8 101
2024 04 20 20  22 47 11.752   -09 57 52.77  1.2856 1.0265  51.5 21.7 52.1 101
2024 04 20 21  22 47 20.189   -09 57 23.30  1.2852 1.0263  51.5 21.7 54.5 101
2024 04 20 22  22 47 28.631   -09 56 53.80  1.2848 1.0261  51.5 21.7 56.9 101
2024 04 20 23  22 47 37.077   -09 56 24.27  1.2844 1.0260  51.5 21.7 59.4 101
2024 04 21 00  22 47 45.528   -09 55 54.70  1.2840 1.0258  51.5 21.7 61.9 101
2024 04 21 01  22 47 53.984   -09 55 25.11  1.2836 1.0257  51.5 21.7 64.5 101
2024 04 21 02  22 48 02.445   -09 54 55.48  1.2832 1.0255  51.5 21.7 67.1 101
2024 04 21 03  22 48 10.910   -09 54 25.83  1.2828 1.0253  51.5 21.7 69.8 101
2024 04 21 04  22 48 19.380   -09 53 56.14  1.2824 1.0252  51.5 21.7 72.5 101
2024 04 21 05  22 48 27.854   -09 53 26.43  1.2820 1.0250  51.5 21.7 75.2 101
2024 04 21 06  22 48 36.334   -09 52 56.68  1.2815 1.0248  51.5 21.7 78.1 101
2024 04 21 07  22 48 44.818   -09 52 26.90  1.2811 1.0247  51.5 21.7 80.9 101
2024 04 21 08  22 48 53.307   -09 51 57.09  1.2807 1.0245  51.6 21.7 83.9 101
2024 04 21 09  22 49 01.801   -09 51 27.25  1.2803 1.0243  51.6 21.7 86.8 102
2024 04 21 10  22 49 10.300   -09 50 57.38  1.2799 1.0242  51.6 21.7 89.8 102
2024 04 21 11  22 49 18.803   -09 50 27.48  1.2795 1.0240  51.6 21.7 92.9 102
2024 04 21 12  22 49 27.311   -09 49 57.55  1.2791 1.0238  51.6 21.7 96.0 102
2024 04 21 13  22 49 35.824   -09 49 27.58  1.2787 1.0237  51.6 21.7 99.2 102
2024 04 21 14  22 49 44.342   -09 48 57.59  1.2783 1.0235  51.6 21.7  102 102
2024 04 21 15  22 49 52.864   -09 48 27.56  1.2779 1.0233  51.6 21.7  106 102
2024 04 21 16  22 50 01.392   -09 47 57.50  1.2775 1.0232  51.6 21.7  109 102
2024 04 21 17  22 50 09.924   -09 47 27.41  1.2770 1.0230  51.6 21.7  112 102
2024 04 21 18  22 50 18.461   -09 46 57.29  1.2766 1.0228  51.6 21.7  116 102
2024 04 21 19  22 50 27.003   -09 46 27.14  1.2762 1.0226  51.6 21.7  119 102
2024 04 21 20  22 50 35.550   -09 45 56.96  1.2758 1.0225  51.6 21.7  123 102
2024 04 21 21  22 50 44.102   -09 45 26.75  1.2754 1.0223  51.6 21.7  126 102
2024 04 21 22  22 50 52.658   -09 44 56.50  1.2750 1.0221  51.6 21.7  130 102
2024 04 21 23  22 51 01.220   -09 44 26.22  1.2746 1.0220  51.6 21.7  134 102
2024 04 22 00  22 51 09.786   -09 43 55.91  1.2742 1.0218  51.6 21.7  137 102
2024 04 22 01  22 51 18.358   -09 43 25.57  1.2738 1.0216  51.6 21.7  141 102
2024 04 22 02  22 51 26.934   -09 42 55.20  1.2734 1.0214  51.6 21.7  145 102
2024 04 22 03  22 51 35.515   -09 42 24.79  1.2730 1.0213  51.7 21.7  149 102
2024 04 22 04  22 51 44.101   -09 41 54.36  1.2725 1.0211  51.7 21.7  153 102
2024 04 22 05  22 51 52.692   -09 41 23.89  1.2721 1.0209  51.7 21.7  157 102
2024 04 22 06  22 52 01.288   -09 40 53.39  1.2717 1.0207  51.7 21.7  161 102
2024 04 22 07  22 52 09.889   -09 40 22.86  1.2713 1.0206  51.7 21.7  165 102
2024 04 22 08  22 52 18.495   -09 39 52.29  1.2709 1.0204  51.7 21.7  169 102
2024 04 22 09  22 52 27.106   -09 39 21.70  1.2705 1.0202  51.7 21.7  173 102
2024 04 22 10  22 52 35.721   -09 38 51.07  1.2701 1.0200  51.7 21.7  177 102
2024 04 22 11  22 52 44.342   -09 38 20.41  1.2697 1.0199  51.7 21.7  181 102
2024 04 22 12  22 52 52.968   -09 37 49.71  1.2693 1.0197  51.7 21.7  186 102
2024 04 22 13  22 53 01.599   -09 37 18.99  1.2688 1.0195  51.7 21.7  190 102